Simultaneous Nadir Overpasses (SNOs) Predictions

Prediction of SNOs between FY3D and AQUA Satellite Orbit:

Table of predicted SNOs for the next 14.0 days since TLE Epoch: 10/26/2024
Index Date (FY3D) Time (FY3D) Lat,Lon (FY3D) SZA (FY3D ) Date (AQUA) Time (AQUA) Lat,Lon (AQUA) SZA (AQUA ) Distance(km) Time Diff (sec)
1 10/26/2024 12:10:46 79.56, -20.02 92.48 10/26/2024 12:11:34 79.57, -20.16 92.49 3.09 48
2 10/26/2024 13:01:24 -79.33, 149.27 87.81 10/26/2024 13:00:48 -79.34, 149.14 87.79 3.07 36
3 10/28/2024 23:23:22 79.55, 172.00 93.28 10/28/2024 23:23:58 79.55, 171.97 93.28 0.74 36
4 10/29/2024 00:14:01 -79.35, -18.97 86.97 10/29/2024 00:13:13 -79.35, -18.98 86.96 0.25 48
5 10/31/2024 10:35:58 79.54, 3.93 94.08 10/31/2024 10:36:20 79.54, 3.99 94.07 1.38 22
6 10/31/2024 11:26:37 -79.35, 172.95 86.17 10/31/2024 11:25:35 -79.34, 173.06 86.17 2.31 62
7 11/02/2024 21:48:34 79.55,-164.24 94.87 11/02/2024 21:48:40 79.54,-164.09 94.85 3.06 6
8 11/02/2024 22:36:22 -71.82, 33.32 92.43 11/02/2024 22:35:10 -71.44, 30.77 93.04 99.13 72
9 11/05/2024 08:10:27 -79.63,-140.37 84.29 11/05/2024 08:11:40 -79.64,-140.50 84.28 2.77 73
10 11/05/2024 09:01:05 79.41, 28.88 95.44 11/05/2024 09:00:54 79.42, 28.79 95.45 2.01 11
11 11/07/2024 19:23:00 -79.60, 51.83 83.60 11/07/2024 19:23:53 -79.60, 51.78 83.61 0.94 53



Historial Predications of SNOs between FY3D and AQUA
